Regional Weather Roundup
Issued by NWS

Home | Current Version | Previous Version | Graphics & Text | Print | Product List | Glossary Off
Versions: 1 2 3 4 5 6 7 8 9 10 11 12 13 14 15 16 17 18 19 20 21 22 23 24 25 26 27 28 29 30 31 32 33 34 35 36 37 38 39 40 41 42 43 44 45 46 47 48 49 50

000
ASUS43 KLSX 211107
RWRMO

WEATHER SUMMARY FOR MISSOURI
NATIONAL WEATHER SERVICE SPRINGFIELD MO
600 AM CDT SUN SEP 21 2014

NOTE: "FAIR" INDICATES FEW OR NO CLOUDS BELOW 12,000 FEET WITH NO
       SIGNIFICANT WEATHER AND/OR OBSTRUCTIONS TO VISIBILITY.
       CURRENT SKY AND/OR WEATHER CONDITIONS ARE NOT AVAILABLE FOR
       CHILLICOTHE AND FARMINGTON.

MOZ001>031-035>038-043-044-053-054-211200-
...NORTHERN AND WESTERN MISSOURI...

CITY           SKY/WX    TMP DP  RH WIND       PRES   REMARKS
KANSAS CTY INT CLEAR     60  51  72 NW3       30.10R
KANSAS C DTWN  CLEAR     62  52  69 CALM      30.09R
LEE`S SUMMIT   CLEAR     60  48  64 N3        30.10R
ST JOSEPH      CLEAR     49  47  93 CALM      30.10R
CHILLICOTHE      N/A     52  50  93 CALM      30.07S
KIRKSVILLE     CLEAR     55  50  83 NW7       30.03S

$$
MOZ066>068-077>081-088>096-101>105-211200-
...SOUTHWEST MISSOURI...

CITY           SKY/WX    TMP DP  RH WIND       PRES   REMARKS
SPRINGFIELD    PTCLDY    71  67  87 W6        30.04R
JOPLIN         MOCLDY    70  69  97 W6        30.06R

$$
MOZ032>034-039>042-045>050-055>058-069>072-211200-
...CENTRAL MISSOURI...

CITY           SKY/WX    TMP DP  RH WIND       PRES   REMARKS
COLUMBIA       CLEAR     61  53  75 N12       30.05R
JEFFERSON CITY CLEAR     66  57  72 N8        30.03R
ROLLA          MOCLDY    69  67  93 NW10      30.00R
SEDALIA        CLEAR     61  52  72 N7        30.08R
WHITEMAN AFB   CLEAR     58  52  80 N6        30.08R
OSAGE BEACH    PTCLDY    70  64  83 N6        30.03R

$$
MOZ051-052-059>065-211200-
...EAST CENTRAL MISSOURI...

CITY           SKY/WX    TMP DP  RH WIND       PRES   REMARKS
ST LOUIS INTL  NOT AVBL
SPIRIT OF STL  PTCLDY    69  61  75 N12G23    29.97R
ST CHARLES     CLEAR     66  55  67 NW13      29.98R

$$
MOZ072>076-082>087-097>100-106>115-211200-
...SOUTH CENTRAL AND SOUTHEAST MISSOURI...

CITY           SKY/WX    TMP DP  RH WIND       PRES   REMARKS
CAPE GIRARDEAU CLOUDY    71  68  90 W7        29.94R
FARMINGTON     PTCLDY    70  66  88 W7        29.98R
POPLAR BLUFF   PTCLDY    67  64  90 SW6       29.95R
WEST PLAINS    CLOUDY    68  66  93 W6        30.03R

$$



USA.gov is the U.S. government's official web portal to all federal, state and local government web resources and services.